Weather in Ispravnaya

Russia / Karachay-Cherkess Republic     44°04′07″N   41°36′23″E
temp.,
°C
wind,
m/s
gust,
m/s
humid.,
%
clouds,
%
prec.,
mm/h
press.,
hPa
HPBL,
m
4 march, thu
thu400:00−6wnw1198100 0.4 102631
03:00−6sw129695 0.5 102743
06:00−8sw238518 0.0 102822
09:00−4ssw12739 0.0 102789
12:00−1ne11690 0.0 1025379
15:00−1ne11790 0.0 1024373
18:00−5ese11900 0.0 102321
21:00−6s22850 0.0 102421
5 march, fri
fri500:00−6s22820 0.0 102322
03:00−6s23620 0.0 102222
06:00−5ssw23560 0.0 102122
09:00−1s22650 0.0 102058
12:00+4sw11780 0.0 101896
15:00+4ene11760 0.0 1018124
18:000s11580 0.0 101922
21:00−1ssw33650 0.0 102023
6 march, sat
sat600:00−2ssw335514 0.0 102028
03:00−2ssw335518 0.0 102028
06:00−2ssw34543 0.0 101930
09:00+2ssw335943 0.0 101985
12:00+7sw356385 0.0 1016303
15:00+7w126391 0.0 1015210
18:00+3sw2359100 0.0 101524
21:00+1sw3369100 0.0 101755
7 march, sun
sun700:00−1nnw2397100 0.0 101987
03:00−4nw4693100 0.8 1020448
06:00−5nw3495100 2.0 1022342
09:00−7nnw2386100 2.6 1024393
12:00−5n2275100 0.0 1025621
15:00−3n227292 0.0 1025647
18:00−6nne228788 0.0 1025152
21:00−7nne119374 0.0 102670
8 march, mon
mon800:00−7ene009474 0.0 102587
03:00−8ne129481 0.1 1024154
06:00−8se1195100 0.1 102298
09:00−6sse117575 0.1 1021193
12:00−2nne22600 0.0 1019571
15:00−2ne22610 0.0 1018681
18:00−4ene127840 0.0 101931
21:00−5e118370 0.0 102125